Location: Krishnamma Banjar
(17.2175°N, 80.5166°E)
Time: 02:19:21
(UTC+00:00)

IRIDIUM 104 - Pass Details

Date: 03 August 2024
Orbit: 776 x 779 km, 86.4° (Epoch: 10 September)

Event Time Altitude Azimuth Distance (km) Brightness Sun altitude
Exits shadow 22:39:30 25° 177° (S) 1,540 5.6 -22.6°
Maximum altitude 22:42:39 86° 90° (E) 784 4.3 -22.0°
Drops below altitude 10° 22:47:52 10° 2° (N) 2,327 7.1 -20.8°
Sets 22:50:12 0° 1° (N) 3,256 7.9 -20.3°
